Raleigh-Durham Airport, NC

11:51 AM EST on December 15, 2017 (GMT -0500)
Raleigh-Durham International

Weather History for KRDU - July, 2013

Change the Weather History Date:

Wednesday, July 24, 2013

  Actual Average Record
Temperature  
Mean Temperature 84 °F 80 °F  
Max Temperature 96 °F 90 °F 101 °F (2011)
Min Temperature 71 °F 70 °F 57 °F (1947)
Degree Days  
Heating Degree Days 0 0  
Month to date heating degree days 0 0  
Since 1 June heating degree days 0 4  
Since 1 July heating degree days 0 0  
Cooling Degree Days 19 15  
Month to date cooling degree days 366 360  
Year to date cooling degree days 875 916  
Since 1 June cooling degree days 697 707  
Growing Degree Days 34 (Base 50)    
Moisture  
Dew Point 69 °F    
Average Humidity 68    
Maximum Humidity 94    
Minimum Humidity 41    
Precipitation  
Precipitation 0.50 in 0.16 in 4.18 in (1997)
Month to date precipitation 2.35 3.62  
Year to date precipitation 31.46 24.17  
Sea Level Pressure  
Sea Level Pressure 29.77 in    
Wind  
Wind Speed 3 mph (NW)    
Max Wind Speed 16 mph    
Max Gust Speed 24 mph    
Visibility 9 miles    
Events Rain , Thunderstorm    
T = Trace of Precipitation, MM = Missing Value Source: NWS Daily Summary

Daily Weather History Graph

Daily Weather History Graph

Search for Another Location

Airport or City:

Trip Planner

Search our weather history database for the weather conditions in past years. The results will help you decide how hot, cold, wet, or windy it might be!

Date:

Astronomy

Jul. 24, 2013 Rise Set
Actual Time 6:16 AM EDT 8:26 PM EDT
Civil Twilight 5:48 AM EDT 8:54 PM EDT
Nautical Twilight 5:12 AM EDT 9:29 PM EDT
Astronomical Twilight 4:34 AM EDT 10:07 PM EDT
Moon 9:38 PM EDT (7/24) 8:28 AM EDT (7/24)
Length of Visible Light 15h 06m
Length of Day
14h 09m
Waning Gibbous, 95% of the Moon is Illuminated
Jul 24
Waning Gibbous
Jul 29
Last Quarter
Aug 6
New
Aug 14
First Quarter
Aug 20
Full

Hourly Weather History & Observations

Time (EDT) Temp. Heat Index Dew Point Humidity Pressure Visibility Wind Dir Wind Speed Gust Speed Precip Events Conditions
12:51 AM 77.0 °F - 71.1 °F 82% 29.77 in 10.0 mi Calm Calm - N/A   Scattered Clouds
1:51 AM 73.9 °F - 70.0 °F 87% 29.77 in 10.0 mi WSW 6.9 mph - N/A   Scattered Clouds
2:51 AM 73.9 °F - 70.0 °F 87% 29.75 in 10.0 mi Calm Calm - N/A   Partly Cloudy
3:51 AM 73.0 °F - 70.0 °F 90% 29.74 in 10.0 mi WSW 3.5 mph - N/A   Scattered Clouds
4:51 AM 73.0 °F - 69.1 °F 87% 29.73 in 10.0 mi Calm Calm - N/A   Mostly Cloudy
5:51 AM 72.0 °F - 69.1 °F 91% 29.74 in 10.0 mi Calm Calm - N/A   Scattered Clouds
6:51 AM 71.1 °F - 68.0 °F 90% 29.76 in 10.0 mi Calm Calm - N/A   Scattered Clouds
7:51 AM 75.9 °F - 71.1 °F 85% 29.78 in 10.0 mi SW 4.6 mph - N/A   Scattered Clouds
8:51 AM 80.1 °F 82.9 °F 69.1 °F 69% 29.79 in 10.0 mi WNW 3.5 mph - N/A   Scattered Clouds
9:51 AM 84.0 °F 88.4 °F 70.0 °F 63% 29.79 in 10.0 mi Calm Calm - N/A   Scattered Clouds
10:51 AM 88.0 °F 92.9 °F 70.0 °F 55% 29.79 in 10.0 mi North 4.6 mph - N/A   Scattered Clouds
11:51 AM 89.1 °F 92.9 °F 68.0 °F 50% 29.79 in 10.0 mi Variable 4.6 mph - N/A   Scattered Clouds
12:51 PM 91.0 °F 94.3 °F 66.9 °F 45% 29.78 in 10.0 mi Variable 3.5 mph - N/A   Scattered Clouds
1:51 PM 91.0 °F 93.0 °F 64.9 °F 42% 29.78 in 10.0 mi West 5.8 mph - N/A   Mostly Cloudy
2:51 PM 90.0 °F 93.6 °F 68.0 °F 48% 29.76 in 10.0 mi Variable 3.5 mph - N/A   Mostly Cloudy
3:51 PM 90.0 °F 93.6 °F 68.0 °F 48% 29.75 in 10.0 mi NW 5.8 mph - N/A   Mostly Cloudy
4:51 PM 91.9 °F 94.5 °F 66.0 °F 42% 29.75 in 10.0 mi Calm Calm - N/A   Mostly Cloudy
5:04 PM 89.6 °F 92.2 °F 66.2 °F 46% 29.76 in 10.0 mi WNW 3.5 mph - N/A Thunderstorm Thunderstorm
5:41 PM 91.4 °F 94.0 °F 66.2 °F 43% 29.77 in 10.0 mi Calm Calm - N/A   Mostly Cloudy
5:51 PM 89.1 °F 92.9 °F 68.0 °F 50% 29.75 in 10.0 mi North 4.6 mph - N/A   Mostly Cloudy
6:18 PM 82.4 °F 85.4 °F 68.0 °F 62% 29.77 in 2.0 mi Calm Calm - 0.08 in Rain Rain
6:21 PM 80.6 °F 83.9 °F 69.8 °F 70% 29.77 in 6.0 mi Calm Calm - 0.10 in Rain , Thunderstorm Thunderstorms and Rain
6:29 PM 75.2 °F - 69.8 °F 83% 29.78 in 2.0 mi NW 16.1 mph 24.2 mph 0.21 in Rain , Thunderstorm Heavy Thunderstorms and Rain
6:37 PM 75.2 °F - 69.8 °F 83% 29.77 in 6.0 mi North 6.9 mph 24.2 mph 0.35 in Rain , Thunderstorm Light Thunderstorms and Rain
6:51 PM 75.0 °F - 71.1 °F 87% 29.76 in 6.0 mi North 12.7 mph 18.4 mph 0.45 in Rain , Thunderstorm Light Thunderstorms and Rain
7:34 PM 75.2 °F - 73.4 °F 94% 29.78 in 7.0 mi East 4.6 mph - 0.05 in Rain Light Rain
7:51 PM 75.0 °F - 72.0 °F 90% 29.78 in 7.0 mi Calm Calm - 0.05 in   Mostly Cloudy
8:51 PM 75.0 °F - 73.0 °F 94% 29.80 in 7.0 mi Calm Calm - N/A   Mostly Cloudy
9:51 PM 73.9 °F - 72.0 °F 93% 29.82 in 10.0 mi Calm Calm - N/A   Mostly Cloudy
10:51 PM 73.9 °F - 72.0 °F 93% 29.83 in 7.0 mi ENE 3.5 mph - N/A   Overcast
11:51 PM 75.0 °F - 72.0 °F 90% 29.85 in 10.0 mi Calm Calm - 0.00 in   Mostly Cloudy